Year,Month,Day,Hour,Minute,Value (Times are PST for temperature in C)
2016,04,19,00,00,13.90
2016,04,19,00,01,13.90
2016,04,19,00,02,13.90
2016,04,19,00,03,14.00
2016,04,19,00,04,14.00
2016,04,19,00,05,14.00
2016,04,19,00,06,14.10
2016,04,19,00,07,14.10
2016,04,19,00,08,14.10
2016,04,19,00,09,14.10
2016,04,19,00,10,14.10
2016,04,19,00,11,14.10
2016,04,19,00,12,14.10
2016,04,19,00,13,14.10
2016,04,19,00,14,14.10
2016,04,19,00,15,14.10
2016,04,19,00,16,14.10
2016,04,19,00,17,14.10
2016,04,19,00,18,14.10
2016,04,19,00,19,14.10
2016,04,19,00,20,14.10
2016,04,19,00,21,14.00
2016,04,19,00,22,14.00
2016,04,19,00,23,14.00
2016,04,19,00,24,13.90
2016,04,19,00,25,13.90
2016,04,19,00,26,13.90
2016,04,19,00,27,13.90
2016,04,19,00,28,13.90
2016,04,19,00,29,13.90
2016,04,19,00,30,13.80
2016,04,19,00,31,13.90
2016,04,19,00,32,13.90
2016,04,19,00,33,13.80
2016,04,19,00,34,13.80
2016,04,19,00,35,13.80
2016,04,19,00,36,13.80
2016,04,19,00,37,13.80
2016,04,19,00,38,13.80
2016,04,19,00,39,13.80
2016,04,19,00,40,13.80
2016,04,19,00,41,13.80
2016,04,19,00,42,13.80
2016,04,19,00,43,13.70
2016,04,19,00,44,13.70
2016,04,19,00,45,13.70
2016,04,19,00,46,13.70
2016,04,19,00,47,13.70
2016,04,19,00,48,13.70
2016,04,19,00,49,13.70
2016,04,19,00,50,13.70
2016,04,19,00,51,13.70
2016,04,19,00,52,13.60
2016,04,19,00,53,13.60
2016,04,19,00,54,13.60
2016,04,19,00,55,13.60
2016,04,19,00,56,13.60
2016,04,19,00,57,13.60
2016,04,19,00,58,13.60
2016,04,19,00,59,13.60
2016,04,19,01,00,13.70
2016,04,19,01,01,13.70
2016,04,19,01,02,13.70
2016,04,19,01,03,13.80
2016,04,19,01,04,14.00
2016,04,19,01,05,14.20
2016,04,19,01,06,14.40
2016,04,19,01,07,14.60
2016,04,19,01,08,14.80
2016,04,19,01,09,15.10
2016,04,19,01,10,15.40
2016,04,19,01,11,15.60
2016,04,19,01,12,15.80
2016,04,19,01,13,16.00
2016,04,19,01,14,16.30
2016,04,19,01,15,16.50
2016,04,19,01,16,16.70
2016,04,19,01,17,16.90
2016,04,19,01,18,17.10
2016,04,19,01,19,17.20
2016,04,19,01,20,17.30
2016,04,19,01,21,17.30
2016,04,19,01,22,17.40
2016,04,19,01,23,17.40
2016,04,19,01,24,17.50
2016,04,19,01,25,17.50
2016,04,19,01,26,17.60
2016,04,19,01,27,17.60
2016,04,19,01,28,17.60
2016,04,19,01,29,17.60
2016,04,19,01,30,17.60
2016,04,19,01,31,17.60
2016,04,19,01,32,17.60
2016,04,19,01,33,17.70
2016,04,19,01,34,17.60
2016,04,19,01,35,17.60
2016,04,19,01,36,17.60
2016,04,19,01,37,17.60
2016,04,19,01,38,17.60
2016,04,19,01,39,17.60
2016,04,19,01,40,17.60
2016,04,19,01,41,17.60
2016,04,19,01,42,17.60
2016,04,19,01,43,17.50
2016,04,19,01,44,17.50
2016,04,19,01,45,17.50
2016,04,19,01,46,17.40
2016,04,19,01,47,17.40
2016,04,19,01,48,17.40
2016,04,19,01,49,17.30
2016,04,19,01,50,17.30
2016,04,19,01,51,17.30
2016,04,19,01,52,17.30
2016,04,19,01,53,17.20
2016,04,19,01,54,17.20
2016,04,19,01,55,17.20
2016,04,19,01,56,17.20
2016,04,19,01,57,17.20
2016,04,19,01,58,17.20
2016,04,19,01,59,17.10
2016,04,19,02,00,17.10
2016,04,19,02,01,17.10
2016,04,19,02,02,17.10
2016,04,19,02,03,17.00
2016,04,19,02,04,17.00
2016,04,19,02,05,17.00
2016,04,19,02,06,17.00
2016,04,19,02,07,17.00
2016,04,19,02,08,17.00
2016,04,19,02,09,17.00
2016,04,19,02,10,17.00
2016,04,19,02,11,16.90
2016,04,19,02,12,16.90
2016,04,19,02,13,16.90
2016,04,19,02,14,16.90
2016,04,19,02,15,16.90
2016,04,19,02,16,16.90
2016,04,19,02,17,16.90
2016,04,19,02,18,16.90
2016,04,19,02,19,16.90
2016,04,19,02,20,16.90
2016,04,19,02,21,16.90
2016,04,19,02,22,16.80
2016,04,19,02,23,16.80
2016,04,19,02,24,16.80
2016,04,19,02,25,16.80
2016,04,19,02,26,16.80
2016,04,19,02,27,16.80
2016,04,19,02,28,16.70
2016,04,19,02,29,16.70
2016,04,19,02,30,16.70
2016,04,19,02,31,16.70
2016,04,19,02,32,16.70
2016,04,19,02,33,16.70
2016,04,19,02,34,16.60
2016,04,19,02,35,16.60
2016,04,19,02,36,16.60
2016,04,19,02,37,16.60
2016,04,19,02,38,16.60
2016,04,19,02,39,16.50
2016,04,19,02,40,16.50
2016,04,19,02,41,16.50
2016,04,19,02,42,16.40
2016,04,19,02,43,16.40
2016,04,19,02,44,16.40
2016,04,19,02,45,16.40
2016,04,19,02,46,16.40
2016,04,19,02,47,16.40
2016,04,19,02,48,16.40
2016,04,19,02,49,16.30
2016,04,19,02,50,16.30
2016,04,19,02,51,16.30
2016,04,19,02,52,16.30
2016,04,19,02,53,16.30
2016,04,19,02,54,16.20
2016,04,19,02,55,16.20
2016,04,19,02,56,16.20
2016,04,19,02,57,16.10
2016,04,19,02,58,16.10
2016,04,19,02,59,16.10
2016,04,19,03,00,16.10
2016,04,19,03,01,16.00
2016,04,19,03,02,16.00
2016,04,19,03,03,16.00
2016,04,19,03,04,16.00
2016,04,19,03,05,16.10
2016,04,19,03,06,16.10
2016,04,19,03,07,16.10
2016,04,19,03,08,16.10
2016,04,19,03,09,16.10
2016,04,19,03,10,16.10
2016,04,19,03,11,16.10
2016,04,19,03,12,16.10
2016,04,19,03,13,16.10
2016,04,19,03,14,16.10
2016,04,19,03,15,16.00
2016,04,19,03,16,16.00
2016,04,19,03,17,16.00
2016,04,19,03,18,16.00
2016,04,19,03,19,16.00
2016,04,19,03,20,15.90
2016,04,19,03,21,15.90
2016,04,19,03,22,15.80
2016,04,19,03,23,15.80
2016,04,19,03,24,15.80
2016,04,19,03,25,15.70
2016,04,19,03,26,15.70
2016,04,19,03,27,15.70
2016,04,19,03,28,15.60
2016,04,19,03,29,15.60
2016,04,19,03,30,15.50
2016,04,19,03,31,15.50
2016,04,19,03,32,15.40
2016,04,19,03,33,15.30
2016,04,19,03,34,15.30
2016,04,19,03,35,15.20
2016,04,19,03,36,15.10
2016,04,19,03,37,15.00
2016,04,19,03,38,15.00
2016,04,19,03,39,14.90
2016,04,19,03,40,14.90
2016,04,19,03,41,14.80
2016,04,19,03,42,14.80
2016,04,19,03,43,14.80
2016,04,19,03,44,14.70
2016,04,19,03,45,14.70
2016,04,19,03,46,14.70
2016,04,19,03,47,14.60
2016,04,19,03,48,14.60
2016,04,19,03,49,14.50
2016,04,19,03,50,14.50
2016,04,19,03,51,14.50
2016,04,19,03,52,14.50
2016,04,19,03,53,14.40
2016,04,19,03,54,14.40
2016,04,19,03,55,14.40
2016,04,19,03,56,14.30
2016,04,19,03,57,14.30
2016,04,19,03,58,14.20
2016,04,19,03,59,14.20
2016,04,19,04,00,14.20
2016,04,19,04,01,14.10
2016,04,19,04,02,14.10
2016,04,19,04,03,14.10
2016,04,19,04,04,14.20
2016,04,19,04,05,14.20
2016,04,19,04,06,14.20
2016,04,19,04,07,14.30
2016,04,19,04,08,14.30
2016,04,19,04,09,14.30
2016,04,19,04,10,14.30
2016,04,19,04,11,14.30
2016,04,19,04,12,14.30
2016,04,19,04,13,14.30
2016,04,19,04,14,14.30
2016,04,19,04,15,14.30
2016,04,19,04,16,14.30
2016,04,19,04,17,14.30
2016,04,19,04,18,14.30
2016,04,19,04,19,14.30
2016,04,19,04,20,14.30
2016,04,19,04,21,14.30
2016,04,19,04,22,14.30
2016,04,19,04,23,14.30
2016,04,19,04,24,14.30
2016,04,19,04,25,14.30
2016,04,19,04,26,14.30
2016,04,19,04,27,14.30
2016,04,19,04,28,14.30
2016,04,19,04,29,14.30
2016,04,19,04,30,14.20
2016,04,19,04,31,14.20
2016,04,19,04,32,14.20
2016,04,19,04,33,14.20
2016,04,19,04,34,14.20
2016,04,19,04,35,14.20
2016,04,19,04,36,14.20
2016,04,19,04,37,14.20
2016,04,19,04,38,14.20
2016,04,19,04,39,14.10
2016,04,19,04,40,14.10
2016,04,19,04,41,14.10
2016,04,19,04,42,14.10
2016,04,19,04,43,14.10
2016,04,19,04,44,14.10
2016,04,19,04,45,14.00
2016,04,19,04,46,14.00
2016,04,19,04,47,13.90
2016,04,19,04,48,13.90
2016,04,19,04,49,13.90
2016,04,19,04,50,13.80
2016,04,19,04,51,13.80
2016,04,19,04,52,13.80
2016,04,19,04,53,13.70
2016,04,19,04,54,13.70
2016,04,19,04,55,13.70
2016,04,19,04,56,13.70
2016,04,19,04,57,13.70
2016,04,19,04,58,13.70
2016,04,19,04,59,13.60
2016,04,19,05,00,13.60
2016,04,19,05,01,13.60
2016,04,19,05,02,13.60
2016,04,19,05,03,13.50
2016,04,19,05,04,13.50
2016,04,19,05,05,13.40
2016,04,19,05,06,13.40
2016,04,19,05,07,13.40
2016,04,19,05,08,13.30
2016,04,19,05,09,13.30
2016,04,19,05,10,13.30
2016,04,19,05,11,13.30
2016,04,19,05,12,13.20
2016,04,19,05,13,13.20
2016,04,19,05,14,13.20
2016,04,19,05,15,13.20
2016,04,19,05,16,13.20
2016,04,19,05,17,13.10
2016,04,19,05,18,13.10
2016,04,19,05,19,13.10
2016,04,19,05,20,13.10
2016,04,19,05,21,13.10
2016,04,19,05,22,13.10
2016,04,19,05,23,13.00
2016,04,19,05,24,13.00
2016,04,19,05,25,13.00
2016,04,19,05,26,12.90
2016,04,19,05,27,12.90
2016,04,19,05,28,12.90
2016,04,19,05,29,12.90
2016,04,19,05,30,12.90
2016,04,19,05,31,12.90
2016,04,19,05,32,12.80
2016,04,19,05,33,12.80
2016,04,19,05,34,12.80
2016,04,19,05,35,12.70
2016,04,19,05,36,12.70
2016,04,19,05,37,12.70
2016,04,19,05,38,12.60
2016,04,19,05,39,12.60
2016,04,19,05,40,12.60
2016,04,19,05,41,12.60
2016,04,19,05,42,12.60
2016,04,19,05,43,12.50
2016,04,19,05,44,12.50
2016,04,19,05,45,12.50
2016,04,19,05,46,12.40
2016,04,19,05,47,12.40
2016,04,19,05,48,12.40
2016,04,19,05,49,12.40
2016,04,19,05,50,12.40
2016,04,19,05,51,12.30
2016,04,19,05,52,12.30
2016,04,19,05,53,12.30
2016,04,19,05,54,12.30
2016,04,19,05,55,12.30
2016,04,19,05,56,12.20
2016,04,19,05,57,12.20
2016,04,19,05,58,12.20
2016,04,19,05,59,12.20
2016,04,19,06,00,12.20
2016,04,19,06,01,12.10
2016,04,19,06,02,12.10
2016,04,19,06,03,12.10
2016,04,19,06,04,12.10
2016,04,19,06,05,12.10
2016,04,19,06,06,12.10
2016,04,19,06,07,12.10
2016,04,19,06,08,12.00
2016,04,19,06,09,12.00
2016,04,19,06,10,12.00
2016,04,19,06,11,11.90
2016,04,19,06,12,11.90
2016,04,19,06,13,11.90
2016,04,19,06,14,11.90
2016,04,19,06,15,11.90
2016,04,19,06,16,11.90
2016,04,19,06,17,11.80
2016,04,19,06,18,11.80
2016,04,19,06,19,11.80
2016,04,19,06,20,11.80
2016,04,19,06,21,11.80
2016,04,19,06,22,11.80
2016,04,19,06,23,11.80
2016,04,19,06,24,11.80
2016,04,19,06,25,11.80
2016,04,19,06,26,11.80
2016,04,19,06,27,11.80
2016,04,19,06,28,11.80
2016,04,19,06,29,11.80
2016,04,19,06,30,11.80
2016,04,19,06,31,11.80
2016,04,19,06,32,11.80
2016,04,19,06,33,11.80
2016,04,19,06,34,11.80
2016,04,19,06,35,11.80
2016,04,19,06,36,11.80
2016,04,19,06,37,11.80
2016,04,19,06,38,11.80
2016,04,19,06,39,11.70
2016,04,19,06,40,11.70
2016,04,19,06,41,11.70
2016,04,19,06,42,11.70
2016,04,19,06,43,11.70
2016,04,19,06,44,11.70
2016,04,19,06,45,11.70
2016,04,19,06,46,11.70
2016,04,19,06,47,11.70
2016,04,19,06,48,11.70
2016,04,19,06,49,11.70
2016,04,19,06,50,11.70
2016,04,19,06,51,11.70
2016,04,19,06,52,11.70
2016,04,19,06,53,11.70
2016,04,19,06,54,11.70
2016,04,19,06,55,11.70
2016,04,19,06,56,11.70
2016,04,19,06,57,11.70
2016,04,19,06,58,11.70
2016,04,19,06,59,11.70
2016,04,19,07,00,11.70
2016,04,19,07,01,11.70
2016,04,19,07,02,11.70
2016,04,19,07,03,11.70
2016,04,19,07,04,11.70
2016,04,19,07,05,11.70
2016,04,19,07,06,11.70
2016,04,19,07,07,11.70
2016,04,19,07,08,11.70
2016,04,19,07,09,11.70
2016,04,19,07,10,11.70
2016,04,19,07,11,11.70
2016,04,19,07,12,11.80
2016,04,19,07,13,11.80
2016,04,19,07,14,11.80
2016,04,19,07,15,11.80
2016,04,19,07,16,11.80
2016,04,19,07,17,11.90
2016,04,19,07,18,11.90
2016,04,19,07,19,11.90
2016,04,19,07,20,12.00
2016,04,19,07,21,12.00
2016,04,19,07,22,12.00
2016,04,19,07,23,12.00
2016,04,19,07,24,12.00
2016,04,19,07,25,12.10
2016,04,19,07,26,12.10
2016,04,19,07,27,12.10
2016,04,19,07,28,12.10
2016,04,19,07,29,12.10
2016,04,19,07,30,12.00
2016,04,19,07,31,12.10
2016,04,19,07,32,12.10
2016,04,19,07,33,12.10
2016,04,19,07,34,12.10
2016,04,19,07,35,12.10
2016,04,19,07,36,12.10
2016,04,19,07,37,12.10
2016,04,19,07,38,12.10
2016,04,19,07,39,12.10
2016,04,19,07,40,12.20
2016,04,19,07,41,12.20
2016,04,19,07,42,12.20
2016,04,19,07,43,12.20
2016,04,19,07,44,12.30
2016,04,19,07,45,12.30
2016,04,19,07,46,12.40
2016,04,19,07,47,12.40
2016,04,19,07,48,12.50
2016,04,19,07,49,12.50
2016,04,19,07,50,12.60
2016,04,19,07,51,12.60
2016,04,19,07,52,12.70
2016,04,19,07,53,12.70
2016,04,19,07,54,12.70
2016,04,19,07,55,12.70
2016,04,19,07,56,12.70
2016,04,19,07,57,12.70
2016,04,19,07,58,12.70
2016,04,19,07,59,12.70
2016,04,19,08,00,12.70
2016,04,19,08,01,12.70
2016,04,19,08,02,12.70
2016,04,19,08,03,12.80
2016,04,19,08,04,12.80
2016,04,19,08,05,12.80
2016,04,19,08,06,12.90
2016,04,19,08,07,13.00
2016,04,19,08,08,13.10
2016,04,19,08,09,13.10
2016,04,19,08,10,13.20
2016,04,19,08,11,13.30
2016,04,19,08,12,13.40
2016,04,19,08,13,13.40
2016,04,19,08,14,13.50
2016,04,19,08,15,13.60
2016,04,19,08,16,13.60
2016,04,19,08,17,13.70
2016,04,19,08,18,13.70
2016,04,19,08,19,13.70
2016,04,19,08,20,13.80
2016,04,19,08,21,13.80
2016,04,19,08,22,13.90
2016,04,19,08,23,14.00
2016,04,19,08,24,14.00
2016,04,19,08,25,14.10
2016,04,19,08,26,14.10
2016,04,19,08,27,14.20
2016,04,19,08,28,14.20
2016,04,19,08,29,14.30
2016,04,19,08,30,14.30
2016,04,19,08,31,14.30
2016,04,19,08,32,14.30
2016,04,19,08,33,14.30
2016,04,19,08,34,14.30
2016,04,19,08,35,14.40
2016,04,19,08,36,14.40
2016,04,19,08,37,14.50
2016,04,19,08,38,14.50
2016,04,19,08,39,14.60
2016,04,19,08,40,14.60
2016,04,19,08,41,14.70
2016,04,19,08,42,14.80
2016,04,19,08,43,14.90
2016,04,19,08,44,14.90
2016,04,19,08,45,15.00
2016,04,19,08,46,15.10
2016,04,19,08,47,15.20
2016,04,19,08,48,15.30
2016,04,19,08,49,15.30
2016,04,19,08,50,15.40
2016,04,19,08,51,15.40
2016,04,19,08,52,15.40
2016,04,19,08,53,15.50
2016,04,19,08,54,15.50
2016,04,19,08,55,15.60
2016,04,19,08,56,15.60
2016,04,19,08,57,15.60
2016,04,19,08,58,15.60
2016,04,19,08,59,15.60
2016,04,19,09,00,15.50
2016,04,19,09,01,15.50
2016,04,19,09,02,15.50
2016,04,19,09,03,15.50
2016,04,19,09,04,15.50
2016,04,19,09,05,15.50
2016,04,19,09,06,15.50
2016,04,19,09,07,15.40
2016,04,19,09,08,15.40
2016,04,19,09,09,15.40
2016,04,19,09,10,15.40
2016,04,19,09,11,15.40
2016,04,19,09,12,15.30
2016,04,19,09,13,15.20
2016,04,19,09,14,15.20
2016,04,19,09,15,15.20
2016,04,19,09,16,15.10
2016,04,19,09,17,15.10
2016,04,19,09,18,15.10
2016,04,19,09,19,15.10
2016,04,19,09,20,15.20
2016,04,19,09,21,15.20
2016,04,19,09,22,15.20
2016,04,19,09,23,15.20
2016,04,19,09,24,15.20
2016,04,19,09,25,15.10
2016,04,19,09,26,15.10
2016,04,19,09,27,15.00
2016,04,19,09,28,15.00
2016,04,19,09,29,15.00
2016,04,19,09,30,14.90
2016,04,19,09,31,14.90
2016,04,19,09,32,14.90
2016,04,19,09,33,14.90
2016,04,19,09,34,14.90
2016,04,19,09,35,15.00
2016,04,19,09,36,15.00
2016,04,19,09,37,15.00
2016,04,19,09,38,15.00
2016,04,19,09,39,15.00
2016,04,19,09,40,15.10
2016,04,19,09,41,15.20
2016,04,19,09,42,15.20
2016,04,19,09,43,15.30
2016,04,19,09,44,15.30
2016,04,19,09,45,15.30
2016,04,19,09,46,15.20
2016,04,19,09,47,15.20
2016,04,19,09,48,15.10
2016,04,19,09,49,15.10
2016,04,19,09,50,15.10
2016,04,19,09,51,15.10
2016,04,19,09,52,15.10
2016,04,19,09,53,15.10
2016,04,19,09,54,15.20
2016,04,19,09,55,15.30
2016,04,19,09,56,15.40
2016,04,19,09,57,15.50
2016,04,19,09,58,15.60
2016,04,19,09,59,15.70
2016,04,19,10,00,15.80
2016,04,19,10,01,16.00
2016,04,19,10,02,16.00
2016,04,19,10,03,16.10
2016,04,19,10,04,16.20
2016,04,19,10,05,16.30
2016,04,19,10,06,16.40
2016,04,19,10,07,16.40
2016,04,19,10,08,16.40
2016,04,19,10,09,16.50
2016,04,19,10,10,16.60
2016,04,19,10,11,16.60
2016,04,19,10,12,16.70
2016,04,19,10,13,16.80
2016,04,19,10,14,16.90
2016,04,19,10,15,16.90
2016,04,19,10,16,17.00
2016,04,19,10,17,17.00
2016,04,19,10,18,17.10
2016,04,19,10,19,17.10
2016,04,19,10,20,17.20
2016,04,19,10,21,17.20
2016,04,19,10,22,17.20
2016,04,19,10,23,17.30
2016,04,19,10,24,17.30
2016,04,19,10,25,17.40
2016,04,19,10,26,17.40
2016,04,19,10,27,17.50
2016,04,19,10,28,17.50
2016,04,19,10,29,17.60
2016,04,19,10,30,17.60
2016,04,19,10,31,17.70
2016,04,19,10,32,17.70
2016,04,19,10,33,17.70
2016,04,19,10,34,17.80
2016,04,19,10,35,17.80
2016,04,19,10,36,17.80
2016,04,19,10,37,17.90
2016,04,19,10,38,17.90
2016,04,19,10,39,17.90
2016,04,19,10,40,17.90
2016,04,19,10,41,17.90
2016,04,19,10,42,17.90
2016,04,19,10,43,17.90
2016,04,19,10,44,17.90
2016,04,19,10,45,18.00
2016,04,19,10,46,18.00
2016,04,19,10,47,18.00
2016,04,19,10,48,18.00
2016,04,19,10,49,18.00
2016,04,19,10,50,18.00
2016,04,19,10,51,18.00
2016,04,19,10,52,18.00
2016,04,19,10,53,18.00
2016,04,19,10,54,17.90
2016,04,19,10,55,18.00
2016,04,19,10,56,18.00
2016,04,19,10,57,18.10
2016,04,19,10,58,18.10
2016,04,19,10,59,18.20
2016,04,19,11,00,18.20
2016,04,19,11,01,18.30
2016,04,19,11,02,18.30
2016,04,19,11,03,18.40
2016,04,19,11,04,18.40
2016,04,19,11,05,18.50
2016,04,19,11,06,18.60
2016,04,19,11,07,18.60
2016,04,19,11,08,18.70
2016,04,19,11,09,18.70
2016,04,19,11,10,18.70
2016,04,19,11,11,18.70
2016,04,19,11,12,18.70
2016,04,19,11,13,18.70
2016,04,19,11,14,18.80
2016,04,19,11,15,18.80
2016,04,19,11,16,18.80
2016,04,19,11,17,18.80
2016,04,19,11,18,18.90
2016,04,19,11,19,18.90
2016,04,19,11,20,19.00
2016,04,19,11,21,19.10
2016,04,19,11,22,19.10
2016,04,19,11,23,19.20
2016,04,19,11,24,19.20
2016,04,19,11,25,19.20
2016,04,19,11,26,19.20
2016,04,19,11,27,19.20
2016,04,19,11,28,19.30
2016,04,19,11,29,19.30
2016,04,19,11,30,19.30
2016,04,19,11,31,19.30
2016,04,19,11,32,19.30
2016,04,19,11,33,19.30
2016,04,19,11,34,19.30
2016,04,19,11,35,19.40
2016,04,19,11,36,19.40
2016,04,19,11,37,19.50
2016,04,19,11,38,19.60
2016,04,19,11,39,19.60
2016,04,19,11,40,19.60
2016,04,19,11,41,19.60
2016,04,19,11,42,19.60
2016,04,19,11,43,19.60
2016,04,19,11,44,19.60
2016,04,19,11,45,19.60
2016,04,19,11,46,19.50
2016,04,19,11,47,19.40
2016,04,19,11,48,19.40
2016,04,19,11,49,19.30
2016,04,19,11,50,19.40
2016,04,19,11,51,19.40
2016,04,19,11,52,19.40
2016,04,19,11,53,19.50
2016,04,19,11,54,19.50
2016,04,19,11,55,19.60
2016,04,19,11,56,19.60
2016,04,19,11,57,19.70
2016,04,19,11,58,19.70
2016,04,19,11,59,19.70
2016,04,19,12,00,19.70
2016,04,19,12,01,19.70
2016,04,19,12,02,19.70
2016,04,19,12,03,19.80
2016,04,19,12,04,19.80
2016,04,19,12,05,19.90
2016,04,19,12,06,19.90
2016,04,19,12,07,19.90
2016,04,19,12,08,20.00
2016,04,19,12,09,20.00
2016,04,19,12,10,20.00
2016,04,19,12,11,19.90
2016,04,19,12,12,19.90
2016,04,19,12,13,19.90
2016,04,19,12,14,19.90
2016,04,19,12,15,19.90
2016,04,19,12,16,20.00
2016,04,19,12,17,20.10
2016,04,19,12,18,20.10
2016,04,19,12,19,20.20
2016,04,19,12,20,20.30
2016,04,19,12,21,20.30
2016,04,19,12,22,20.30
2016,04,19,12,23,20.30
2016,04,19,12,24,20.40
2016,04,19,12,25,20.40
2016,04,19,12,26,20.40
2016,04,19,12,27,20.40
2016,04,19,12,28,20.40
2016,04,19,12,29,20.40
2016,04,19,12,30,20.40
2016,04,19,12,31,20.40
2016,04,19,12,32,20.30
2016,04,19,12,33,20.30
2016,04,19,12,34,20.40
2016,04,19,12,35,20.40
2016,04,19,12,36,20.40
2016,04,19,12,37,20.50
2016,04,19,12,38,20.50
2016,04,19,12,39,20.50
2016,04,19,12,40,20.50
2016,04,19,12,41,20.60
2016,04,19,12,42,20.60
2016,04,19,12,43,20.60
2016,04,19,12,44,20.50
2016,04,19,12,45,20.40
2016,04,19,12,46,20.30
2016,04,19,12,47,20.40
2016,04,19,12,48,20.40
2016,04,19,12,49,20.40
2016,04,19,12,50,20.30
2016,04,19,12,51,20.30
2016,04,19,12,52,20.30
2016,04,19,12,53,20.30
2016,04,19,12,54,20.30
2016,04,19,12,55,20.30
2016,04,19,12,56,20.30
2016,04,19,12,57,20.40
2016,04,19,12,58,20.40
2016,04,19,12,59,20.40
2016,04,19,13,00,20.40
2016,04,19,13,01,20.40
2016,04,19,13,02,20.50
2016,04,19,13,03,20.50
2016,04,19,13,04,20.60
2016,04,19,13,05,20.60
2016,04,19,13,06,20.70
2016,04,19,13,07,20.80
2016,04,19,13,08,20.90
2016,04,19,13,09,20.90
2016,04,19,13,10,21.00
2016,04,19,13,11,21.20
2016,04,19,13,12,21.20
2016,04,19,13,13,21.20
2016,04,19,13,14,21.30
2016,04,19,13,15,21.30
2016,04,19,13,16,21.40
2016,04,19,13,17,21.40
2016,04,19,13,18,21.50
2016,04,19,13,19,21.50
2016,04,19,13,20,21.50
2016,04,19,13,21,21.40
2016,04,19,13,22,21.40
2016,04,19,13,23,21.50
2016,04,19,13,24,21.60
2016,04,19,13,25,21.60
2016,04,19,13,26,21.60
2016,04,19,13,27,21.70
2016,04,19,13,28,21.70
2016,04,19,13,29,21.80
2016,04,19,13,30,21.80
2016,04,19,13,31,21.90
2016,04,19,13,32,21.90
2016,04,19,13,33,21.90
2016,04,19,13,34,21.90
2016,04,19,13,35,21.90
2016,04,19,13,36,22.00
2016,04,19,13,37,22.00
2016,04,19,13,38,22.10
2016,04,19,13,39,22.10
2016,04,19,13,40,22.20
2016,04,19,13,41,22.20
2016,04,19,13,42,22.20
2016,04,19,13,43,22.20
2016,04,19,13,44,22.10
2016,04,19,13,45,22.10
2016,04,19,13,46,22.10
2016,04,19,13,47,22.10
2016,04,19,13,48,22.10
2016,04,19,13,49,22.10
2016,04,19,13,50,22.10
2016,04,19,13,51,22.20
2016,04,19,13,52,22.20
2016,04,19,13,53,22.20
2016,04,19,13,54,22.20
2016,04,19,13,55,22.20
2016,04,19,13,56,22.20
2016,04,19,13,57,22.20
2016,04,19,13,58,22.20
2016,04,19,13,59,22.20
2016,04,19,14,00,22.10
2016,04,19,14,01,22.10
2016,04,19,14,02,22.10
2016,04,19,14,03,22.10
2016,04,19,14,04,22.10
2016,04,19,14,05,22.00
2016,04,19,14,06,21.90
2016,04,19,14,07,21.80
2016,04,19,14,08,21.80
2016,04,19,14,09,21.70
2016,04,19,14,10,21.70
2016,04,19,14,11,21.70
2016,04,19,14,12,21.70
2016,04,19,14,13,21.80
2016,04,19,14,14,21.80
2016,04,19,14,15,21.80
2016,04,19,14,16,21.80
2016,04,19,14,17,21.90
2016,04,19,14,18,21.90
2016,04,19,14,19,21.90
2016,04,19,14,20,21.90
2016,04,19,14,21,21.90
2016,04,19,14,22,22.00
2016,04,19,14,23,22.00
2016,04,19,14,24,22.00
2016,04,19,14,25,22.00
2016,04,19,14,26,21.90
2016,04,19,14,27,21.80
2016,04,19,14,28,21.80
2016,04,19,14,29,21.80
2016,04,19,14,30,21.70
2016,04,19,14,31,21.70
2016,04,19,14,32,21.70
2016,04,19,14,33,21.60
2016,04,19,14,34,21.50
2016,04,19,14,35,21.50
2016,04,19,14,36,21.50
2016,04,19,14,37,21.60
2016,04,19,14,38,21.70
2016,04,19,14,39,21.80
2016,04,19,14,40,21.80
2016,04,19,14,41,21.90
2016,04,19,14,42,22.00
2016,04,19,14,43,22.00
2016,04,19,14,44,22.10
2016,04,19,14,45,22.10
2016,04,19,14,46,22.20
2016,04,19,14,47,22.20
2016,04,19,14,48,22.30
2016,04,19,14,49,22.30
2016,04,19,14,50,22.30
2016,04,19,14,51,22.30
2016,04,19,14,52,22.30
2016,04,19,14,53,22.30
2016,04,19,14,54,22.30
2016,04,19,14,55,22.30
2016,04,19,14,56,22.30
2016,04,19,14,57,22.30
2016,04,19,14,58,22.30
2016,04,19,14,59,22.30
2016,04,19,15,00,22.30
2016,04,19,15,01,22.30
2016,04,19,15,02,22.20
2016,04,19,15,03,22.20
2016,04,19,15,04,22.20
2016,04,19,15,05,22.20
2016,04,19,15,06,22.30
2016,04,19,15,07,22.40
2016,04,19,15,08,22.40
2016,04,19,15,09,22.40
2016,04,19,15,10,22.50
2016,04,19,15,11,22.50
2016,04,19,15,12,22.60
2016,04,19,15,13,22.60
2016,04,19,15,14,22.60
2016,04,19,15,15,22.70
2016,04,19,15,16,22.80
2016,04,19,15,17,22.90
2016,04,19,15,18,23.00
2016,04,19,15,19,23.10
2016,04,19,15,20,23.20
2016,04,19,15,21,23.20
2016,04,19,15,22,23.30
2016,04,19,15,23,23.30
2016,04,19,15,24,23.40
2016,04,19,15,25,23.40
2016,04,19,15,26,23.50
2016,04,19,15,27,23.60
2016,04,19,15,28,23.60
2016,04,19,15,29,23.60
2016,04,19,15,30,23.60
2016,04,19,15,31,23.60
2016,04,19,15,32,23.60
2016,04,19,15,33,23.60
2016,04,19,15,34,23.60
2016,04,19,15,35,23.60
2016,04,19,15,36,23.50
2016,04,19,15,37,23.40
2016,04,19,15,38,23.20
2016,04,19,15,39,23.20
2016,04,19,15,40,23.20
2016,04,19,15,41,23.10
2016,04,19,15,42,23.10
2016,04,19,15,43,23.10
2016,04,19,15,44,23.00
2016,04,19,15,45,23.00
2016,04,19,15,46,23.00
2016,04,19,15,47,23.10
2016,04,19,15,48,23.10
2016,04,19,15,49,23.10
2016,04,19,15,50,23.20
2016,04,19,15,51,23.20
2016,04,19,15,52,23.30
2016,04,19,15,53,23.30
2016,04,19,15,54,23.40
2016,04,19,15,55,23.40
2016,04,19,15,56,23.40
2016,04,19,15,57,23.50
2016,04,19,15,58,23.50
2016,04,19,15,59,23.50
2016,04,19,16,00,23.60
2016,04,19,16,01,23.60
2016,04,19,16,02,23.60
2016,04,19,16,03,23.60
2016,04,19,16,04,23.70
2016,04,19,16,05,23.70
2016,04,19,16,06,23.80
2016,04,19,16,07,23.80
2016,04,19,16,08,23.90
2016,04,19,16,09,23.90
2016,04,19,16,10,23.90
2016,04,19,16,11,23.80
2016,04,19,16,12,23.70
2016,04,19,16,13,23.60
2016,04,19,16,14,23.50
2016,04,19,16,15,23.50
2016,04,19,16,16,23.60
2016,04,19,16,17,23.60
2016,04,19,16,18,23.70
2016,04,19,16,19,23.70
2016,04,19,16,20,23.70
2016,04,19,16,21,23.60
2016,04,19,16,22,23.60
2016,04,19,16,23,23.60
2016,04,19,16,24,23.70
2016,04,19,16,25,23.70
2016,04,19,16,26,23.70
2016,04,19,16,27,23.60
2016,04,19,16,28,23.50
2016,04,19,16,29,23.40
2016,04,19,16,30,23.30
2016,04,19,16,31,23.20
2016,04,19,16,32,23.00
2016,04,19,16,33,22.90
2016,04,19,16,34,22.80
2016,04,19,16,35,22.80
2016,04,19,16,36,22.70
2016,04,19,16,37,22.70
2016,04,19,16,38,22.70
2016,04,19,16,39,22.70
2016,04,19,16,40,22.70
2016,04,19,16,41,22.70
2016,04,19,16,42,22.80
2016,04,19,16,43,22.80
2016,04,19,16,44,22.90
2016,04,19,16,45,22.90
2016,04,19,16,46,22.90
2016,04,19,16,47,23.00
2016,04,19,16,48,23.00
2016,04,19,16,49,23.10
2016,04,19,16,50,23.00
2016,04,19,16,51,23.00
2016,04,19,16,52,22.80
2016,04,19,16,53,22.70
2016,04,19,16,54,22.60
2016,04,19,16,55,22.50
2016,04,19,16,56,22.30
2016,04,19,16,57,22.20
2016,04,19,16,58,22.00
2016,04,19,16,59,21.80
2016,04,19,17,00,21.70
2016,04,19,17,01,21.60
2016,04,19,17,02,21.40
2016,04,19,17,03,21.30
2016,04,19,17,04,21.20
2016,04,19,17,05,21.20
2016,04,19,17,06,21.10
2016,04,19,17,07,21.00
2016,04,19,17,08,21.00
2016,04,19,17,09,20.90
2016,04,19,17,10,20.80
2016,04,19,17,11,20.60
2016,04,19,17,12,20.50
2016,04,19,17,13,20.50
2016,04,19,17,14,20.50
2016,04,19,17,15,20.40
2016,04,19,17,16,20.40
2016,04,19,17,17,20.40
2016,04,19,17,18,20.40
2016,04,19,17,19,20.40